ZIYUAN 3-2 (ZY 3-2) (41556 NORAD) Tracking and Keplerian Element Data

This shows tracking and keplerian element data for the satellite.

Feedback or suggestion? Click here.




ElementValue
Catalog41556
NameZIYUAN 3-2 (ZY 3-2)
Epoch Orbit29587
Epoch Day270.16822034
Epoch Year2021
RAAN339.652
Inclination97.317
Eccentricity0.0002568
Argument of Perigee144.7349
Mean Anonmoly299.2761
Mean Motion15.2138348
Decay Rate1.6E-05
L11 41556U 16033A 21270.16822034 .00001600 00000-0 74382-4 0 9997
L22 41556 97.3170 339.6520 0002568 144.7349 299.2761 15.21383480295873

Live tracking and technical data element details for ZIYUAN 3-2 (ZY 3-2) (NORAD 41556). ZIYUAN 3-2 (ZY 3-2) can be tracked NOW for your location showing map with azimuth and elevation plus other details from your city location.

Track the satellite on the map from your city or location and see movement details for azimuth, elevation, latitude, longitude, range, height, and movement on the map or in text.







IsCatalogInMostPopularTable: catalog: 41556, numindb: 539
Update: records affected: 1



GetName: 41556 ZIYUAN 3-2 (ZY 3-2)

Hit Count: updated at: Tue, 28 Sep 2021 16:26:05 GMT